When you browse on this site, cookies collect data to enhance your experience and personalize the content and advertising you see.
Visit our Privacy Policy to learn more. By continuing to use the site, you agree to this use of cookies and data.
  • In Belgien
  • Länderverzeichnis
  • Für 7 Tage
  • Wassertemperatur
  • Wetterkarte
  • Widgets
  • user-avatar
    Anmelden

    Stündliche Wetter Phnom Penh

    Heute, 5 Juni, Freitag

    Zeit Temperatur Niederschläge Wind Luftdruck Luftfeuchtigkeit
    00:00 +30°C° 0 mm 3 m/S 755 mmHg 79%
    01:00 +29°C° 0 mm 3 m/S 755 mmHg 78%
    02:00 +29°C° 0 mm 2 m/S 755 mmHg 78%
    03:00 +29°C° 0 mm 2 m/S 755 mmHg 78%
    04:00 +29°C° 0 mm 2 m/S 754 mmHg 78%
    05:00 +29°C° 0 mm 2 m/S 755 mmHg 76%
    06:00 +29°C° 0 mm 1 m/S 755 mmHg 75%
    07:00 +30°C° 0 mm 1 m/S 755 mmHg 74%
    08:00 +31°C° 0 mm 2 m/S 755 mmHg 68%
    09:00 +34°C° 0 mm 2 m/S 756 mmHg 61%
    10:00 +35°C° 0 mm 2 m/S 756 mmHg 54%
    11:00 +36°C° 0 mm 2 m/S 755 mmHg 51%
    12:00 +37°C° 0 mm 2 m/S 755 mmHg 48%
    13:00 +38°C° 0 mm 3 m/S 754 mmHg 45%
    14:00 +38°C° 0 mm 3 m/S 754 mmHg 45%
    15:00 +38°C° 0 mm 3 m/S 753 mmHg 45%
    16:00 +38°C° 0 mm 3 m/S 752 mmHg 45%
    17:00 +37°C° 0.4 mm 3 m/S 753 mmHg 53%
    18:00 +35°C° 0.4 mm 4 m/S 753 mmHg 61%
    19:00 +33°C° 0.4 mm 4 m/S 754 mmHg 69%
    20:00 +33°C° 0 mm 4 m/S 754 mmHg 72%
    21:00 +32°C° 0 mm 4 m/S 754 mmHg 74%
    22:00 +30°C° 0 mm 3 m/S 755 mmHg 77%
    23:00 +30°C° 0 mm 3 m/S 755 mmHg 78%

    Morgen, 6 Juni, Samstag

    Zeit Temperatur Niederschläge Wind Luftdruck Luftfeuchtigkeit
    00:00 +30°C° 0 mm 3 m/S 754 mmHg 79%
    01:00 +29°C° 0 mm 2 m/S 754 mmHg 80%
    02:00 +29°C° 0 mm 2 m/S 754 mmHg 81%
    03:00 +29°C° 0 mm 2 m/S 754 mmHg 82%
    04:00 +29°C° 0 mm 2 m/S 753 mmHg 83%
    05:00 +29°C° 0 mm 2 m/S 754 mmHg 81%
    06:00 +30°C° 0 mm 2 m/S 754 mmHg 79%
    07:00 +30°C° 0 mm 2 m/S 754 mmHg 78%
    08:00 +32°C° 0 mm 2 m/S 755 mmHg 70%
    09:00 +34°C° 0 mm 3 m/S 755 mmHg 62%
    10:00 +36°C° 0 mm 3 m/S 755 mmHg 54%
    11:00 +37°C° 0 mm 3 m/S 755 mmHg 51%
    12:00 +37°C° 0 mm 3 m/S 754 mmHg 48%
    13:00 +38°C° 0 mm 4 m/S 754 mmHg 45%
    14:00 +37°C° 0.3 mm 4 m/S 753 mmHg 50%
    15:00 +37°C° 0.3 mm 5 m/S 753 mmHg 54%
    16:00 +36°C° 0.3 mm 5 m/S 752 mmHg 58%
    17:00 +34°C° 0.6 mm 5 m/S 753 mmHg 62%
    18:00 +33°C° 0.6 mm 4 m/S 753 mmHg 67%
    19:00 +32°C° 0.6 mm 4 m/S 754 mmHg 72%
    20:00 +31°C° 0 mm 3 m/S 754 mmHg 73%
    21:00 +30°C° 0 mm 3 m/S 755 mmHg 75%
    22:00 +30°C° 0 mm 3 m/S 755 mmHg 77%
    23:00 +29°C° 0 mm 3 m/S 755 mmHg 78%

    übermorgen, 7 Juni, Sonntag

    Zeit Temperatur Niederschläge Wind Luftdruck Luftfeuchtigkeit
    00:00 +29°C° 0 mm 2 m/S 755 mmHg 79%
    01:00 +29°C° 0 mm 2 m/S 754 mmHg 81%
    02:00 +29°C° 0 mm 2 m/S 754 mmHg 81%
    03:00 +29°C° 0 mm 2 m/S 754 mmHg 81%
    04:00 +29°C° 0 mm 2 m/S 754 mmHg 82%
    05:00 +29°C° 0 mm 2 m/S 754 mmHg 81%
    06:00 +29°C° 0 mm 2 m/S 754 mmHg 80%
    07:00 +30°C° 0 mm 3 m/S 755 mmHg 79%
    08:00 +31°C° 0 mm 3 m/S 755 mmHg 72%
    09:00 +34°C° 0 mm 4 m/S 755 mmHg 66%
    10:00 +35°C° 0 mm 4 m/S 755 mmHg 59%
    11:00 +36°C° 0.1 mm 5 m/S 754 mmHg 57%
    12:00 +36°C° 0.1 mm 5 m/S 754 mmHg 55%
    13:00 +37°C° 0.1 mm 5 m/S 753 mmHg 53%
    14:00 +37°C° 0.3 mm 5 m/S 752 mmHg 53%
    15:00 +37°C° 0.3 mm 5 m/S 752 mmHg 53%
    16:00 +37°C° 0.3 mm 5 m/S 751 mmHg 53%
    17:00 +35°C° 0 mm 4 m/S 752 mmHg 57%
    18:00 +34°C° 0 mm 4 m/S 753 mmHg 61%
    19:00 +33°C° 0 mm 4 m/S 753 mmHg 65%
    20:00 +32°C° 0 mm 4 m/S 754 mmHg 67%
    21:00 +32°C° 0 mm 4 m/S 754 mmHg 70%
    22:00 +30°C° 0 mm 4 m/S 755 mmHg 72%
    23:00 +30°C° 0.1 mm 4 m/S 755 mmHg 74%

    8 Juni, Montag

    Zeit Temperatur Niederschläge Wind Luftdruck Luftfeuchtigkeit
    00:00 +29°C° 0.1 mm 4 m/S 754 mmHg 76%
    01:00 +29°C° 0.1 mm 4 m/S 754 mmHg 78%
    02:00 +29°C° 0 mm 3 m/S 754 mmHg 79%
    03:00 +29°C° 0 mm 3 m/S 753 mmHg 80%
    04:00 +29°C° 0 mm 3 m/S 753 mmHg 81%
    05:00 +29°C° 0 mm 3 m/S 754 mmHg 80%
    06:00 +29°C° 0 mm 3 m/S 754 mmHg 79%
    07:00 +30°C° 0 mm 3 m/S 754 mmHg 78%
    08:00 +31°C° 0 mm 3 m/S 754 mmHg 71%
    09:00 +34°C° 0 mm 3 m/S 755 mmHg 64%
    10:00 +35°C° 0 mm 3 m/S 755 mmHg 57%
    11:00 +36°C° 0 mm 3 m/S 754 mmHg 53%
    12:00 +37°C° 0 mm 3 m/S 754 mmHg 49%
    13:00 +38°C° 0 mm 3 m/S 753 mmHg 45%
    14:00 +38°C° 0 mm 3 m/S 753 mmHg 44%
    15:00 +38°C° 0 mm 3 m/S 752 mmHg 44%
    16:00 +39°C° 0 mm 3 m/S 751 mmHg 44%
    17:00 +37°C° 0.1 mm 4 m/S 752 mmHg 51%
    18:00 +35°C° 0.1 mm 4 m/S 752 mmHg 58%
    19:00 +33°C° 0.1 mm 4 m/S 753 mmHg 66%
    20:00 +33°C° 0 mm 4 m/S 753 mmHg 69%
    21:00 +31°C° 0 mm 3 m/S 754 mmHg 71%
    22:00 +30°C° 0 mm 3 m/S 755 mmHg 74%
    23:00 +30°C° 0 mm 3 m/S 754 mmHg 76%

    9 Juni, Dienstag

    Zeit Temperatur Niederschläge Wind Luftdruck Luftfeuchtigkeit
    00:00 +29°C° 0 mm 3 m/S 754 mmHg 78%
    01:00 +29°C° 0 mm 2 m/S 754 mmHg 80%
    02:00 +29°C° 0 mm 2 m/S 754 mmHg 81%
    03:00 +29°C° 0 mm 2 m/S 754 mmHg 82%
    04:00 +28°C° 0 mm 2 m/S 753 mmHg 83%
    05:00 +29°C° 0.2 mm 1 m/S 754 mmHg 80%
    06:00 +29°C° 0.2 mm 1 m/S 754 mmHg 78%
    07:00 +30°C° 0.2 mm 1 m/S 755 mmHg 75%
    08:00 +31°C° 0 mm 1 m/S 755 mmHg 69%
    09:00 +33°C° 0 mm 1 m/S 755 mmHg 63%
    10:00 +34°C° 0 mm 1 m/S 755 mmHg 56%
    11:00 +35°C° 0 mm 1 m/S 755 mmHg 52%
    12:00 +36°C° 0 mm 1 m/S 754 mmHg 48%
    13:00 +37°C° 0 mm 1 m/S 753 mmHg 44%
    14:00 +39°C° 0 mm 1 m/S 753 mmHg 43%
    15:00 +39°C° 0 mm 1 m/S 752 mmHg 42%
    16:00 +39°C° 0 mm 1 m/S 752 mmHg 41%
    17:00 +37°C° 0.1 mm 1 m/S 752 mmHg 45%
    18:00 +36°C° 0.1 mm 1 m/S 752 mmHg 50%
    19:00 +36°C° 0.1 mm 2 m/S 752 mmHg 54%
    20:00 +35°C° 0.2 mm 2 m/S 753 mmHg 59%
    21:00 +32°C° 0.2 mm 2 m/S 754 mmHg 65%
    22:00 +31°C° 0.2 mm 3 m/S 754 mmHg 71%
    23:00 +31°C° 0 mm 2 m/S 754 mmHg 74%

    10 Juni, Mittwoch

    Zeit Temperatur Niederschläge Wind Luftdruck Luftfeuchtigkeit
    00:00 +30°C° 0 mm 2 m/S 754 mmHg 76%
    01:00 +30°C° 0 mm 2 m/S 753 mmHg 79%
    02:00 +29°C° 0 mm 2 m/S 753 mmHg 80%
    03:00 +29°C° 0 mm 2 m/S 753 mmHg 80%
    04:00 +29°C° 0 mm 2 m/S 753 mmHg 81%
    05:00 +29°C° 0 mm 2 m/S 753 mmHg 79%
    06:00 +30°C° 0 mm 2 m/S 754 mmHg 77%
    07:00 +30°C° 0 mm 2 m/S 754 mmHg 75%
    08:00 +32°C° 0.3 mm 2 m/S 754 mmHg 68%
    09:00 +34°C° 0.3 mm 2 m/S 755 mmHg 61%
    10:00 +36°C° 0.3 mm 2 m/S 755 mmHg 54%
    11:00 +36°C° 0.2 mm 2 m/S 754 mmHg 52%
    12:00 +37°C° 0.2 mm 3 m/S 754 mmHg 50%
    13:00 +38°C° 0.2 mm 3 m/S 754 mmHg 47%
    14:00 +36°C° 1.6 mm 3 m/S 753 mmHg 56%
    15:00 +34°C° 1.6 mm 4 m/S 753 mmHg 65%
    16:00 +32°C° 1.6 mm 4 m/S 753 mmHg 74%
    17:00 +30°C° 2.4 mm 4 m/S 753 mmHg 78%
    18:00 +29°C° 2.4 mm 3 m/S 754 mmHg 82%
    19:00 +28°C° 2.4 mm 3 m/S 754 mmHg 85%
    20:00 +28°C° 0 mm 2 m/S 754 mmHg 85%
    21:00 +28°C° 0 mm 2 m/S 755 mmHg 85%
    22:00 +29°C° 0 mm 2 m/S 755 mmHg 85%
    23:00 +28°C° 0 mm 2 m/S 755 mmHg 86%
    Mehr zeigen